User: anonymous   Login
Location: Unspecified
(20.0000°S, 0.0000°E)
Time: 10:34:18
(UTC+00:00)
Language:

XW-2B - Orbit

View from above orbital plane
View from above orbital plane
View from above satellite
View from above satellite

Ground track
Ground track

The orbit data is extracted from the following two-line orbital elements,

1 40911U 15049N   19290.07484845  .00000488  00000-0  28910-4 0  9999
2 40911  97.4714 290.5418 0015014 134.6466 266.4943 15.15907674225142
Epoch (UTC): 17 October 2019 01:47:46
Eccentricity: 0.0015014
inclination: 97.4714°
perigee height: 508 km
apogee height: 528 km
right ascension of ascending node: 290.5418°
argument of perigee: 134.6466°
revolutions per day: 15.15907674
mean anomaly at epoch: 266.4943°
orbit number at epoch: 22514

The dashed part of the orbit path shows where the satellite is in the earth's shadow,  

DLR